Weather History for Oakdale, LA

Change the Weather History Date:

Saturday, November 3, 2012

  Actual Average (KPOE) Record (KPOE)
Temperature  
Mean Temperature 68 °F -  
Max Temperature 84 °F 70 °F 84 °F (2003)
Min Temperature 53 °F 50 °F 35 °F (1999)
Cooling Degree Days 4    
Growing Degree Days 18 (Base 50)    
Moisture  
Dew Point 63 °F    
Average Humidity 85    
Maximum Humidity 100    
Minimum Humidity 42    
Precipitation  
Precipitation 0.04 in - - ()
Sea Level Pressure  
Sea Level Pressure 30.08 in    
Wind  
Wind Speed 1 mph (SW)    
Max Wind Speed 9 mph    
Max Gust Speed -    
Visibility 6 miles    
Events Fog , Rain , Thunderstorm    
Averages and records for this station are not official NWS values.
T = Trace of Precipitation, MM = Missing Value Source: NWS Daily Summary

Daily Weather History Graph

Daily Weather History Graph

Search for Another Location

Airport:

Trip Planner

Search our weather history database for the weather conditions in past years. The results will help you decide how hot, cold, wet, or windy it might be!

Date:

Astronomy

Nov. 03, 2012 Rise Set
Actual Time 7:27 AM CDT 6:20 PM CDT
Civil Twilight 7:02 AM CDT 6:45 PM CDT
Nautical Twilight 6:33 AM CDT 7:14 PM CDT
Astronomical Twilight 6:05 AM CDT 7:42 PM CDT
Moon 10:08 PM CDT (11/3) 11:25 AM CDT (11/3)
Length of Visible Light 11h 42m
Length of Day
10h 52m
Waning Gibbous, 80% of the Moon is Illuminated
Nov 3
Waning Gibbous
Nov 6
Last Quarter
Nov 13
New
Nov 20
First Quarter
Nov 28
Full

Hourly Weather History & Observations

Time (CDT) Temp. Heat Index Dew Point Humidity Pressure Visibility Wind Dir Wind Speed Gust Speed Precip Events Conditions
12:15 AM - - - N/A% 30.06 in 1.8 mi Calm Calm - N/A   Overcast
12:35 AM 55.4 °F - 55.4 °F 100% 30.06 in 0.5 mi Calm Calm - N/A Fog Fog
12:55 AM 55.4 °F - 55.4 °F 100% 30.05 in 0.8 mi Calm Calm - N/A   Overcast
1:15 AM 55.4 °F - 55.4 °F 100% 30.05 in 0.5 mi Calm Calm - N/A Fog Fog
1:35 AM 53.6 °F - 53.6 °F 100% 30.05 in 0.2 mi Calm Calm - N/A Fog Fog
1:55 AM 55.4 °F - 55.4 °F 100% 30.05 in 0.2 mi Calm Calm - N/A Fog Fog
2:15 AM 55.4 °F - 55.4 °F 100% 30.05 in 0.2 mi Calm Calm - N/A Fog Fog
2:35 AM 55.4 °F - 55.4 °F 100% 30.05 in 0.2 mi Calm Calm - N/A Fog Fog
2:55 AM 55.4 °F - 55.4 °F 100% 30.05 in 0.2 mi Calm Calm - N/A Fog Fog
3:15 AM 57.2 °F - 57.2 °F 100% 30.05 in 0.2 mi Calm Calm - N/A Fog Fog
3:35 AM 59.0 °F - 59.0 °F 100% 30.05 in 0.2 mi Calm Calm - N/A Fog Fog
3:55 AM 59.0 °F - 59.0 °F 100% 30.05 in 0.2 mi Calm Calm - N/A Fog Fog
4:15 AM 59.0 °F - 59.0 °F 100% 30.05 in 0.2 mi Calm Calm - N/A Fog Fog
4:35 AM 62.6 °F - 62.6 °F 100% 30.05 in 0.2 mi Calm Calm - N/A Fog Fog
4:55 AM 64.4 °F - 64.4 °F 100% 30.06 in 0.2 mi Calm Calm - N/A Fog Fog
5:15 AM 64.4 °F - 64.4 °F 100% 30.06 in 0.2 mi Calm Calm - N/A Fog Fog
5:35 AM 64.4 °F - 64.4 °F 100% 30.06 in 0.2 mi Calm Calm - N/A Fog Fog
5:55 AM 64.4 °F - 64.4 °F 100% 30.07 in 0.5 mi Calm Calm - N/A Fog Fog
6:15 AM 64.4 °F - 64.4 °F 100% 30.07 in 0.2 mi Calm Calm - 0.01 in Fog Fog
6:35 AM 64.4 °F - 64.4 °F 100% 30.08 in 0.2 mi Calm Calm - 0.01 in Fog Fog
6:55 AM 64.4 °F - 64.4 °F 100% 30.09 in 0.2 mi Calm Calm - 0.01 in Fog Fog
7:15 AM 64.4 °F - 64.4 °F 100% 30.10 in 0.2 mi Calm Calm - N/A Fog Fog
7:35 AM 64.4 °F - 64.4 °F 100% 30.10 in 0.2 mi Calm Calm - N/A Fog Fog
7:55 AM 64.4 °F - 64.4 °F 100% 30.11 in 0.2 mi Calm Calm - N/A Fog Fog
8:15 AM 64.4 °F - 64.4 °F 100% 30.12 in 0.2 mi Calm Calm - N/A Fog Fog
8:35 AM 64.4 °F - 64.4 °F 100% 30.12 in 0.2 mi Calm Calm - N/A Fog Fog
8:55 AM 66.2 °F - 66.2 °F 100% 30.13 in 0.2 mi Calm Calm - N/A Fog Fog
9:15 AM 66.2 °F - 66.2 °F 100% 30.13 in 0.2 mi Calm Calm - N/A Fog Fog
9:35 AM 66.2 °F - 66.2 °F 100% 30.14 in 0.2 mi Calm Calm - N/A Fog Fog
9:55 AM 68.0 °F - 68.0 °F 100% 30.14 in 0.2 mi Calm Calm - N/A Fog Fog
10:15 AM 69.8 °F - 69.8 °F 100% 30.14 in 3.0 mi Calm Calm - N/A   Overcast
10:35 AM 69.8 °F - 69.8 °F 100% 30.14 in 10.0 mi Calm Calm - N/A   Mostly Cloudy
10:55 AM 71.6 °F - 71.6 °F 100% 30.15 in 10.0 mi Calm Calm - N/A   Scattered Clouds
11:15 AM - - - N/A% 30.14 in 10.0 mi SSW 4.6 mph - N/A   Scattered Clouds
11:35 AM 77.0 °F - 68.0 °F 74% 30.14 in 10.0 mi South 6.9 mph - N/A   Mostly Cloudy
11:55 AM 78.8 °F - 66.2 °F 65% 30.13 in 10.0 mi SW 9.2 mph - N/A   Mostly Cloudy
12:15 PM 80.6 °F 82.7 °F 66.2 °F 61% 30.13 in 10.0 mi WSW 6.9 mph - N/A   Scattered Clouds
12:35 PM 80.6 °F 82.3 °F 64.4 °F 58% 30.12 in 10.0 mi WSW 5.8 mph - N/A   Scattered Clouds
12:55 PM 82.4 °F 83.9 °F 64.4 °F 54% 30.11 in 10.0 mi SW 4.6 mph - N/A   Scattered Clouds
1:15 PM 82.4 °F 82.9 °F 60.8 °F 48% 30.10 in 10.0 mi SW 5.8 mph - N/A   Mostly Cloudy
1:35 PM 82.4 °F 82.9 °F 60.8 °F 48% 30.08 in 10.0 mi WSW 4.6 mph - N/A   Mostly Cloudy
1:55 PM 82.4 °F 82.9 °F 60.8 °F 48% 30.07 in 10.0 mi Calm Calm - N/A   Scattered Clouds
2:15 PM 82.4 °F 82.9 °F 60.8 °F 48% 30.05 in 10.0 mi SSW 5.8 mph - N/A   Scattered Clouds
2:35 PM 82.4 °F 82.5 °F 59.0 °F 45% 30.04 in 10.0 mi South 4.6 mph - N/A   Clear
2:55 PM 84.2 °F 83.8 °F 59.0 °F 42% 30.04 in 10.0 mi SW 5.8 mph - N/A   Clear
3:15 PM 82.4 °F 82.5 °F 59.0 °F 45% 30.03 in 10.0 mi Calm Calm - N/A   Scattered Clouds
3:35 PM 84.2 °F 83.8 °F 59.0 °F 42% 30.02 in 10.0 mi WSW 4.6 mph - N/A   Scattered Clouds
3:55 PM 80.6 °F 81.1 °F 59.0 °F 48% 30.02 in 10.0 mi Calm Calm - N/A   Clear
4:15 PM 78.8 °F - 64.4 °F 61% 30.02 in 10.0 mi Calm Calm - N/A   Clear
4:35 PM 78.8 °F - 66.2 °F 65% 30.02 in 10.0 mi Calm Calm - N/A   Scattered Clouds
4:55 PM 77.0 °F - 62.6 °F 61% 30.03 in 10.0 mi South 4.6 mph - N/A   Mostly Cloudy
5:15 PM 73.4 °F - 64.4 °F 73% 30.03 in 10.0 mi Calm Calm - 0.03 in Rain , Thunderstorm Light Thunderstorms and Rain
5:35 PM 71.6 °F - 66.2 °F 83% 30.05 in 10.0 mi Calm Calm - 0.03 in   Scattered Clouds
5:55 PM 69.8 °F - 69.8 °F 100% 30.06 in 10.0 mi WSW 8.1 mph - 0.03 in   Clear
6:15 PM 69.8 °F - 69.8 °F 100% 30.05 in 10.0 mi SW 3.5 mph - N/A   Scattered Clouds
6:35 PM 68.0 °F - 68.0 °F 100% 30.06 in 10.0 mi Calm Calm - N/A Rain Light Rain
6:55 PM 68.0 °F - 68.0 °F 100% 30.06 in 10.0 mi Calm Calm - N/A   Scattered Clouds
7:15 PM 66.2 °F - 66.2 °F 100% 30.06 in 10.0 mi Calm Calm - N/A   Clear
7:35 PM - - - N/A% 30.06 in 10.0 mi Calm Calm - N/A   Clear
8:15 PM - - - N/A% 30.07 in 10.0 mi Calm Calm - N/A   Clear
8:35 PM - - - N/A% 30.07 in 10.0 mi Calm Calm - N/A   Clear
8:55 PM - - - N/A% 30.07 in 10.0 mi Calm Calm - N/A   Clear
9:15 PM - - - N/A% 30.07 in 10.0 mi Calm Calm - N/A   Clear
9:35 PM - - - N/A% 30.08 in 10.0 mi Calm Calm - N/A   Clear
9:55 PM - - - N/A% 30.09 in 10.0 mi SW 3.5 mph - N/A   Clear
10:15 PM - - - N/A% 30.09 in 10.0 mi SSW 3.5 mph - N/A   Clear
10:35 PM - - - N/A% 30.09 in 10.0 mi Calm Calm - N/A   Clear
10:55 PM - - - N/A% 30.09 in 10.0 mi Calm Calm - N/A   Clear
11:15 PM - - - N/A% 30.09 in 10.0 mi Calm Calm - N/A   Clear
11:35 PM - - - N/A% 30.08 in 10.0 mi Calm Calm - N/A   Clear
11:55 PM - - - N/A% 30.09 in 7.0 mi NW 4.6 mph - N/A   Clear